Binghamton, NY

2:46 PM EST on December 05, 2019 (GMT -0500)
Binghamton Regional-Link

Weather History for KBGM - September, 2019

Change the Weather History Date:

Wednesday, September 4, 2019

  Actual Average Record
Temperature  
Mean Temperature 65 °F 64 °F  
Max Temperature 77 °F 73 °F 91 °F (1953)
Min Temperature 53 °F 55 °F 40 °F (1987)
Degree Days  
Heating Degree Days 0 3  
Month to date heating degree days 5 12  
Since 1 July heating degree days 42 75  
Cooling Degree Days 0 2  
Month to date cooling degree days 0 8  
Year to date cooling degree days 362 356  
Growing Degree Days 17 (Base 50)    
Moisture  
Dew Point 58 °F    
Average Humidity 68    
Maximum Humidity 86    
Minimum Humidity 50    
Precipitation  
Precipitation 0.06 in 0.12 in 1.06 in (1988)
Month to date precipitation 1.34 0.46  
Year to date precipitation 30.13 26.67  
Snow  
Snow 0.00 in 0.00 in 0.00 in (2002)
Month to date snowfall 0.0 0.0  
Since 1 July snowfall 0.0 0.0  
Since 1 September snowfall 0.0 0.0  
Snow Depth 0.00 in    
Sea Level Pressure  
Sea Level Pressure 29.93 in    
Wind  
Wind Speed 11 mph (West)    
Max Wind Speed 20 mph    
Max Gust Speed 29 mph    
Visibility 10 miles    
Events Rain , Thunderstorm    
T = Trace of Precipitation, MM = Missing Value Source: NWS Daily Summary

Daily Weather History Graph

Daily Weather History Graph

Search for Another Location

Airport or City:

Astronomy

Sep. 04, 2019 Rise Set
Actual Time 6:32 AM EDT 7:33 PM EDT
Civil Twilight 6:03 AM EDT 8:01 PM EDT
Nautical Twilight 5:29 AM EDT 8:35 PM EDT
Astronomical Twilight 4:53 AM EDT 9:11 PM EDT
Moon 12:37 PM EDT (9/4) 10:59 PM EDT (9/4)
Length of Visible Light 13h 58m
Length of Day
13h 00m
Waxing Crescent, 34% of the Moon is Illuminated
Sep 4
Waxing Crescent
Sep 5
First Quarter
Sep 14
Full
Sep 21
Last Quarter
Sep 28
New

Hourly Weather History & Observations

Time (EDT) Temp. Dew Point Humidity Pressure Visibility Wind Dir Wind Speed Gust Speed Precip Events Conditions
1:53 AM 66.0 °F 57.9 °F 75% 29.91 in 10.0 mi SSW 11.5 mph 19.6 mph N/A   Scattered Clouds
2:53 AM 66.0 °F 57.0 °F 73% 29.89 in 10.0 mi SSW 11.5 mph - N/A   Clear
3:53 AM 64.0 °F 57.0 °F 78% 29.89 in 10.0 mi SSW 9.2 mph - N/A   Scattered Clouds
4:53 AM 64.9 °F 57.0 °F 75% 29.86 in 10.0 mi SSW 11.5 mph - N/A   Overcast
5:53 AM 64.9 °F 57.9 °F 78% 29.86 in 10.0 mi SSW 11.5 mph 18.4 mph N/A   Clear
6:53 AM 64.9 °F 59.0 °F 81% 29.88 in 10.0 mi SSW 11.5 mph 20.7 mph N/A   Clear
7:53 AM 66.0 °F 60.1 °F 81% 29.87 in 10.0 mi South 10.4 mph 19.6 mph N/A   Scattered Clouds
8:40 AM 69.1 °F 61.0 °F 75% 29.88 in 10.0 mi SSW 12.7 mph 21.9 mph N/A Thunderstorm Clear
8:51 AM 69.8 °F 62.6 °F 78% 29.89 in 10.0 mi SW 11.5 mph 28.8 mph N/A Thunderstorm Thunderstorm
8:53 AM 69.1 °F 61.0 °F 75% 29.87 in 10.0 mi SW 12.7 mph 20.7 mph N/A Thunderstorm Thunderstorm
9:03 AM 68.0 °F 62.1 °F 81% 29.89 in 10.0 mi SW 11.5 mph - 0.00 in Rain , Thunderstorm Light Thunderstorms and Rain
9:13 AM 66.9 °F 62.1 °F 84% 29.89 in 10.0 mi SW 9.2 mph 20.7 mph 0.00 in   Overcast
9:53 AM 69.1 °F 62.1 °F 78% 29.87 in 10.0 mi SW 11.5 mph - 0.00 in   Overcast
10:39 AM 71.1 °F 64.0 °F 78% 29.88 in 10.0 mi SW 15.0 mph - N/A   Scattered Clouds
10:53 AM 72.0 °F 64.0 °F 76% 29.86 in 10.0 mi SW 13.8 mph 25.3 mph N/A   Partly Cloudy
11:53 AM 73.0 °F 64.0 °F 73% 29.86 in 10.0 mi WSW 11.5 mph 20.7 mph N/A   Mostly Cloudy
12:21 PM 70.0 °F 57.9 °F 65% 29.91 in 10.0 mi WNW 16.1 mph 24.2 mph N/A Thunderstorm Overcast
12:26 PM 69.1 °F 57.9 °F 68% 29.92 in 10.0 mi WNW 11.5 mph 24.2 mph N/A Thunderstorm Thunderstorm
12:53 PM 66.0 °F 61.0 °F 84% 29.89 in 10.0 mi WNW 5.8 mph - 0.06 in Thunderstorm Thunderstorm
1:04 PM 69.1 °F 61.0 °F 75% 29.91 in 10.0 mi NW 9.2 mph - N/A Thunderstorm Mostly Cloudy
1:40 PM 73.0 °F 60.1 °F 64% 29.91 in 10.0 mi NW 13.8 mph 27.6 mph N/A   Clear
1:53 PM 73.9 °F 61.0 °F 64% 29.88 in 10.0 mi WNW 15.0 mph 25.3 mph N/A   Clear
2:53 PM 75.9 °F 57.0 °F 52% 29.89 in 10.0 mi West 15.0 mph 20.7 mph N/A   Partly Cloudy
3:53 PM 75.9 °F 55.0 °F 48% 29.90 in 10.0 mi NW 10.4 mph 21.9 mph N/A   Clear
4:53 PM 73.9 °F 55.0 °F 52% 29.92 in 10.0 mi NW 13.8 mph 21.9 mph N/A   Partly Cloudy
5:53 PM 72.0 °F 55.0 °F 55% 29.94 in 10.0 mi NW 13.8 mph 21.9 mph N/A   Clear
6:53 PM 68.0 °F 57.9 °F 70% 29.97 in 10.0 mi NNW 13.8 mph - N/A   Clear
7:53 PM 64.0 °F 57.0 °F 78% 30.01 in 10.0 mi NNW 11.5 mph - N/A   Partly Cloudy
8:50 PM 62.6 °F 55.4 °F 77% 30.06 in 10.0 mi NNW 10.4 mph - N/A   Mostly Cloudy
8:53 PM 62.1 °F 55.9 °F 80% 30.04 in 10.0 mi NNW 10.4 mph - N/A   Mostly Cloudy
9:53 PM 60.1 °F 53.1 °F 78% 30.06 in 10.0 mi North 12.7 mph - N/A   Mostly Cloudy
10:21 PM 57.9 °F 53.1 °F 84% 30.08 in 10.0 mi North 10.4 mph - N/A   Scattered Clouds
10:53 PM 57.0 °F 52.0 °F 83% 30.07 in 10.0 mi NNW 10.4 mph - N/A   Partly Cloudy
11:53 PM 55.9 °F 51.1 °F 84% 30.08 in 10.0 mi North 4.6 mph - N/A   Clear